Wind_Speed
19 16 16 16 18 19 21 19 17 16 15 13 11 9 7 6 6 6 7 8 9 10 10 10 9 9 9 8 8 9 9 11 11 13 15 16 18 18 20 21 17 13 13
22 20 19 19 20 18 18 20 18 19 18 16 14 12 9 8 7 7 7 8 10 11 10 10 10 9 9 8 8 9 11 12 12 13 15 16 17 14 23 15 17 16 18
24 24 22 21 20 18 15 16 18 18 20 19 16 14 12 10 9 8 8 7 10 11 11 11 11 11 10 9 9 11 11 11 12 11 13 14 17 18 21 22 19 21 18
23 25 24 20 17 13 11 13 16 17 18 20 19 16 16 13 12 10 10 9 10 11 12 11 11 10 9 9 9 9 9 10 11 12 13 15 16 20 21 22 22 19 22
27 24 23 20 17 16 13 12 13 17 19 18 18 19 17 16 14 13 12 11 10 12 12 13 11 10 9 10 10 10 10 11 12 14 13 17 16 20 23 25 26 22 28
28 24 25 25 21 20 17 16 15 19 19 19 18 17 19 18 16 15 15 14 12 11 11 12 13 10 9 10 10 11 12 13 13 14 16 16 17 18 23 26 29 28 27
30 28 28 27 22 19 20 18 20 19 19 19 19 18 17 16 17 17 16 16 14 13 11 11 11 12 9 10 10 11 14 15 13 14 14 14 17 19 21 22 22 23 25
32 32 31 27 23 21 22 21 21 18 19 18 18 19 17 15 16 17 16 15 15 13 12 10 10 12 13 10 11 12 13 15 14 14 12 15 18 21 20 21 25 22 30
34 33 32 29 27 25 26 25 24 21 19 19 18 18 17 16 16 16 16 15 14 14 13 12 10 11 12 12 11 12 13 15 15 14 13 13 17 19 16 15 19 12 20
39 36 34 32 30 29 29 28 26 23 22 20 19 18 17 17 17 16 16 15 15 14 14 14 13 10 12 12 12 12 13 14 15 15 14 13 17 17 16 14 14 7 11
41 39 35 34 33 33 33 31 28 24 23 21 20 20 19 18 18 17 16 15 15 15 16 16 14 14 12 11 11 12 13 14 15 15 15 13 16 17 15 13 12 9 12
42 42 40 38 37 37 37 34 31 26 24 24 22 21 21 20 17 18 16 15 16 16 16 17 17 15 15 11 11 11 12 13 16 14 16 15 15 15 16 15 17 12 8
45 44 42 41 40 40 39 36 34 30 27 28 30 27 23 22 20 18 16 16 16 17 17 18 17 17 16 15 13 12 12 12 15 13 17 17 17 16 15 14 15 18 17
49 49 46 44 42 42 42 39 37 34 33 32 33 32 29 25 23 22 19 19 20 18 19 20 18 18 18 17 17 15 14 13 15 14 15 17 18 18 17 18 17 19 13
53 51 50 48 46 44 43 41 40 39 35 34 34 33 32 31 26 24 23 23 22 20 19 21 20 20 18 18 19 19 16 17 16 17 15 17 18 19 20 21 19 15 22
56 56 53 51 49 47 46 44 43 43 36 34 35 33 33 33 30 26 26 25 23 21 20 24 22 21 21 20 19 19 20 19 18 19 17 17 20 19 19 20 21 20 21
56 59 58 57 53 51 49 48 46 46 39 34 36 35 33 32 31 31 29 27 24 23 24 23 25 22 23 22 21 20 20 21 21 21 21 19 18 21 19 21 22 22 19
62 61 62 60 59 55 52 52 52 49 44 38 38 38 36 34 32 31 33 31 29 25 25 25 25 26 23 24 23 22 21 22 23 23 23 24 20 21 21 22 24 24 23
65 66 61 62 61 59 57 55 54 54 47 43 40 41 39 35 34 32 32 34 33 30 27 27 26 27 27 27 25 24 24 24 25 25 25 25 26 24 22 24 23 25 24
70 71 72 65 62 62 60 57 57 56 55 46 43 43 41 38 37 36 33 35 39 34 31 29 30 29 29 29 29 26 25 26 26 27 27 27 26 27 25 22 23 24 26
74 75 74 72 66 64 62 62 61 60 57 51 44 44 43 41 40 38 38 37 39 37 34 34 34 31 30 32 31 31 28 28 27 27 27 28 28 28 27 27 24 26 28
82 79 78 79 75 71 65 64 62 61 57 56 50 46 47 47 45 41 39 36 39 40 39 37 37 35 35 33 35 35 32 29 29 28 28 28 29 30 30 28 28 29 30
94 85 84 83 83 78 71 67 66 65 63 61 57 52 49 50 46 43 38 40 40 44 42 40 40 40 38 36 37 39 37 33 33 31 30 28 28 30 31 30 29 30 32
82 89 93 90 86 86 80 73 70 67 65 60 60 57 51 51 46 44 40 45 47 47 47 45 44 45 43 40 39 39 41 38 37 35 30 31 29 30 32 32 31 31 32
49 63 76 89 89 88 83 78 70 71 65 67 65 67 59 54 49 46 45 48 50 49 48 51 47 47 49 47 40 41 39 40 40 36 35 32 28 31 32 33 33 33 33
44 46 53 73 83 88 86 80 75 70 68 69 69 72 63 53 51 48 48 48 48 50 47 50 51 50 48 51 47 44 41 39 41 38 36 35 34 32 31 33 33 34 36
Wind_Direction
267 277 281 287 293 299 298 288 279 275 270 269 273 281 290 283 312 329 342 343 345 344 346 342 341 341 341 332 310 303 294 286 275 271 268 267 267 273 270 267 268 258 282
267 271 271 276 285 293 297 289 282 277 273 273 272 273 273 274 283 302 317 334 343 340 344 344 338 334 329 330 318 306 299 292 287 280 271 275 271 264 269 259 265 259 262
263 265 268 272 276 289 286 278 281 281 278 272 275 273 271 265 276 285 306 317 332 337 336 346 338 329 327 323 313 304 300 295 295 291 285 282 280 272 265 266 261 265 272
261 265 269 266 272 288 302 279 285 287 284 278 271 272 272 270 266 276 288 307 322 333 331 340 338 331 327 322 324 317 300 298 301 295 287 281 289 282 275 273 268 265 266
261 264 266 263 272 280 286 300 300 295 290 283 281 273 273 275 271 272 277 289 305 321 330 327 332 330 329 322 317 314 305 305 305 302 299 297 296 289 284 274 269 260 258
260 254 261 267 273 276 280 297 302 306 291 290 282 278 270 272 276 276 279 280 286 301 317 323 323 326 327 322 316 316 312 305 307 303 302 304 301 296 297 288 269 249 251
258 256 260 266 267 271 275 285 298 305 290 286 289 285 276 273 271 275 276 278 277 284 300 313 321 326 323 326 320 313 309 308 314 306 303 310 303 297 298 309 305 273 255
260 261 261 263 265 266 270 277 284 294 286 282 286 290 285 279 272 270 270 270 273 275 283 300 314 325 322 323 320 312 306 308 312 313 312 310 304 302 302 308 311 277 242
256 257 259 260 261 264 269 272 279 282 290 282 282 286 288 286 278 267 266 266 267 270 275 286 298 313 318 319 313 311 310 307 308 312 309 304 307 308 309 307 325 287 256
256 255 255 255 258 261 266 272 278 281 279 277 276 279 284 285 283 277 268 266 266 273 278 280 288 297 308 317 316 315 308 306 306 312 309 309 312 316 301 304 322 269 214
254 254 253 254 255 257 261 265 270 276 274 269 270 273 278 279 283 284 275 270 268 270 273 283 278 284 290 307 313 318 309 310 307 309 304 304 312 319 307 295 294 285 265
253 251 251 252 255 256 257 260 261 268 267 269 270 275 276 274 278 279 279 274 272 272 267 274 278 273 279 285 299 309 312 317 313 315 303 298 302 310 312 301 296 270 263
251 252 252 252 252 256 259 260 263 265 260 266 272 271 272 274 274 275 281 285 282 278 276 270 273 272 270 271 278 290 301 310 311 319 303 298 295 296 302 297 279 283 286
248 249 249 252 253 253 255 256 258 261 263 267 270 268 266 267 268 271 275 275 282 281 281 278 274 271 270 270 270 273 286 292 303 316 304 304 300 297 291 284 285 283 312
247 247 247 248 250 252 254 256 258 260 261 264 267 267 267 266 261 263 270 278 287 277 283 282 278 274 269 268 267 270 274 284 291 300 300 302 303 296 291 288 291 284 297
248 246 245 246 247 248 251 253 256 259 257 259 263 269 267 267 261 258 263 273 277 269 282 285 278 280 275 267 265 268 271 276 281 288 297 296 300 302 294 291 291 287 293
245 245 244 245 244 245 247 250 250 254 253 254 258 264 268 269 266 263 260 265 264 264 268 271 274 277 279 275 265 263 266 273 276 279 284 288 291 299 297 290 287 290 289
250 242 241 242 241 242 244 247 251 249 251 250 252 258 263 266 270 265 262 262 258 259 266 270 271 275 276 278 275 264 264 268 273 275 278 284 286 290 295 292 285 285 288
242 247 240 239 240 241 240 242 246 251 246 246 246 252 260 265 266 266 267 264 259 258 260 267 269 271 273 274 276 271 265 265 269 273 276 279 283 290 293 294 291 281 282
243 238 245 240 239 237 237 239 242 246 248 242 244 247 253 260 262 264 262 261 262 258 257 262 266 269 272 272 274 269 267 267 270 273 273 275 280 285 290 291 293 284 279
246 243 240 244 243 242 238 236 237 242 248 250 244 249 251 253 257 260 261 261 264 263 260 262 265 269 269 269 273 271 267 268 271 274 278 278 278 280 284 289 289 289 281
246 243 239 239 240 240 239 238 237 242 247 252 251 243 249 250 252 257 263 263 264 261 264 263 267 270 270 270 268 270 269 271 271 273 277 282 282 281 283 286 290 290 289
250 243 239 237 237 237 233 232 235 239 240 244 247 246 244 249 250 258 259 260 259 262 263 264 268 270 272 272 270 270 270 270 267 266 273 276 279 281 281 282 287 288 291
250 245 236 234 233 233 235 232 233 236 240 244 247 249 239 244 246 250 251 255 259 262 264 264 265 268 271 272 270 273 274 277 279 274 271 275 276 278 280 281 283 286 286
260 247 235 231 229 229 231 233 233 236 237 241 245 246 235 235 242 244 246 254 261 264 264 267 263 264 267 272 275 272 273 274 279 275 276 270 270 276 278 281 283 286 288
263 256 239 221 218 223 226 227 230 229 229 237 242 230 225 229 234 240 249 254 259 263 269 269 269 266 269 275 273 269 265 274 270 266 273 277 278 272 272 281 280 283 286
Height
5862 5863 5861 5860 5860 5860 5859 5859 5857 5857 5856 5855 5855 5854 5853 5852 5852 5852 5850 5849 5847 5845 5844 5842 5841 5840 5838 5837 5837 5837 5836 5835 5835 5834 5834 5833 5833 5834 5833 5832 5834 5831 5828
5859 5859 5859 5858 5857 5857 5857 5857 5856 5855 5854 5853 5852 5852 5851 5851 5850 5850 5850 5848 5846 5845 5843 5841 5840 5838 5837 5836 5836 5835 5834 5833 5833 5832 5832 5832 5832 5830 5830 5830 5830 5830 5830
5856 5856 5856 5856 5854 5854 5853 5853 5853 5852 5852 5851 5850 5850 5850 5849 5849 5848 5848 5846 5846 5844 5843 5841 5839 5837 5836 5835 5834 5834 5832 5832 5831 5830 5830 5829 5828 5828 5827 5827 5828 5827 5827
5852 5852 5852 5852 5852 5851 5850 5850 5849 5849 5848 5848 5847 5847 5847 5846 5846 5846 5845 5844 5844 5843 5842 5839 5838 5836 5835 5834 5833 5832 5831 5830 5829 5827 5827 5826 5826 5824 5824 5824 5824 5825 5824
5847 5848 5848 5849 5849 5848 5848 5847 5846 5846 5846 5845 5845 5845 5844 5844 5844 5843 5843 5841 5841 5841 5840 5838 5837 5835 5834 5833 5832 5830 5829 5828 5827 5825 5825 5825 5824 5822 5820 5819 5818 5819 5819
5841 5842 5843 5844 5845 5845 5845 5844 5843 5843 5843 5842 5842 5841 5841 5841 5841 5840 5841 5840 5839 5839 5838 5837 5836 5834 5832 5832 5830 5828 5827 5826 5825 5824 5823 5822 5821 5819 5816 5813 5811 5813 5814
5836 5837 5838 5839 5840 5841 5841 5840 5840 5839 5839 5839 5838 5838 5837 5837 5837 5838 5838 5838 5837 5837 5836 5836 5835 5833 5831 5830 5829 5826 5825 5824 5823 5823 5822 5820 5818 5815 5814 5812 5811 5811 5809
5831 5832 5832 5833 5835 5836 5836 5836 5836 5835 5835 5835 5835 5835 5834 5834 5834 5834 5834 5834 5835 5834 5834 5834 5833 5831 5830 5828 5827 5825 5823 5822 5821 5821 5820 5819 5815 5813 5812 5810 5805 5806 5809
5825 5826 5827 5828 5829 5830 5830 5830 5831 5832 5832 5832 5831 5832 5831 5830 5831 5831 5831 5831 5831 5831 5831 5831 5831 5830 5828 5826 5825 5823 5821 5819 5819 5819 5818 5818 5813 5811 5810 5808 5804 5805 5808
5819 5821 5821 5822 5823 5824 5825 5826 5827 5827 5828 5828 5828 5828 5828 5828 5828 5828 5828 5828 5828 5828 5828 5828 5828 5827 5827 5825 5823 5821 5820 5818 5816 5816 5816 5815 5812 5810 5809 5807 5805 5804 5806
5813 5814 5815 5816 5817 5818 5819 5820 5822 5823 5823 5824 5824 5824 5824 5825 5825 5825 5825 5825 5825 5825 5825 5825 5825 5825 5824 5823 5822 5819 5818 5815 5814 5814 5814 5812 5811 5808 5805 5805 5806 5805 5805
5806 5807 5808 5810 5812 5812 5813 5814 5816 5817 5819 5820 5820 5820 5821 5821 5821 5821 5821 5822 5821 5822 5822 5821 5822 5822 5821 5820 5819 5817 5816 5813 5811 5811 5810 5810 5809 5807 5804 5803 5803 5803 5803
5797 5800 5801 5803 5805 5806 5807 5809 5810 5812 5813 5815 5816 5816 5816 5817 5817 5818 5818 5818 5818 5819 5818 5818 5818 5818 5818 5817 5817 5815 5814 5811 5809 5809 5807 5807 5806 5805 5803 5801 5802 5800 5800
5788 5790 5794 5795 5798 5799 5800 5802 5803 5805 5807 5808 5810 5812 5812 5811 5813 5814 5814 5814 5815 5815 5815 5815 5814 5814 5814 5814 5814 5812 5811 5809 5807 5806 5804 5803 5803 5802 5801 5800 5798 5797 5796
5779 5782 5785 5787 5790 5792 5793 5795 5797 5799 5800 5802 5803 5805 5807 5807 5807 5808 5809 5810 5810 5810 5811 5811 5810 5810 5810 5810 5810 5809 5808 5807 5806 5803 5803 5800 5799 5799 5797 5796 5795 5794 5793
5768 5770 5773 5776 5780 5783 5785 5787 5790 5792 5793 5795 5796 5798 5800 5802 5802 5802 5804 5805 5805 5806 5806 5807 5806 5806 5806 5805 5805 5805 5804 5803 5803 5800 5800 5798 5795 5795 5794 5793 5792 5792 5792
5756 5758 5761 5765 5769 5772 5776 5778 5780 5784 5787 5788 5790 5790 5793 5796 5798 5798 5798 5799 5800 5800 5801 5800 5802 5801 5802 5802 5801 5801 5800 5800 5799 5797 5795 5795 5793 5791 5791 5790 5789 5789 5789
5739 5743 5746 5751 5756 5761 5765 5768 5770 5775 5778 5781 5782 5784 5785 5788 5791 5793 5794 5795 5794 5795 5795 5795 5796 5796 5796 5797 5797 5797 5796 5795 5794 5793 5792 5790 5789 5789 5787 5787 5786 5785 5785
5725 5725 5732 5736 5742 5748 5753 5756 5759 5763 5770 5772 5774 5775 5778 5781 5784 5786 5788 5789 5790 5789 5789 5790 5790 5790 5791 5791 5792 5792 5791 5791 5789 5788 5788 5787 5784 5783 5783 5782 5781 5780 5780
5707 5710 5712 5722 5728 5732 5740 5743 5747 5751 5755 5763 5765 5767 5770 5774 5776 5779 5780 5783 5783 5784 5783 5783 5784 5784 5785 5785 5786 5786 5786 5785 5784 5783 5782 5782 5781 5779 5778 5777 5776 5776 5775
5688 5696 5701 5707 5714 5717 5725 5729 5734 5738 5745 5753 5758 5761 5763 5764 5768 5770 5773 5775 5777 5778 5778 5777 5777 5778 5779 5778 5780 5780 5780 5780 5779 5778 5777 5777 5776 5775 5774 5773 5771 5770 5770
5666 5675 5682 5690 5695 5701 5710 5718 5723 5728 5735 5741 5746 5751 5754 5756 5758 5761 5765 5767 5769 5769 5772 5771 5771 5771 5771 5772 5773 5773 5775 5775 5773 5772 5771 5771 5770 5769 5768 5767 5766 5765 5763
5632 5651 5660 5668 5674 5681 5693 5702 5710 5716 5721 5725 5732 5738 5744 5745 5749 5754 5756 5758 5759 5760 5763 5765 5764 5764 5763 5765 5766 5767 5768 5768 5766 5767 5765 5764 5763 5763 5762 5761 5761 5759 5758
5595 5610 5628 5641 5652 5658 5674 5687 5695 5703 5709 5717 5721 5728 5733 5738 5742 5744 5746 5747 5749 5752 5753 5757 5756 5756 5756 5757 5758 5761 5760 5761 5761 5760 5761 5759 5757 5756 5755 5754 5754 5753 5752
5574 5579 5591 5610 5627 5641 5659 5675 5685 5691 5700 5703 5709 5710 5715 5724 5732 5735 5736 5738 5740 5743 5746 5745 5748 5746 5747 5748 5751 5750 5752 5752 5752 5752 5751 5751 5752 5749 5748 5747 5746 5745 5745
5562 5563 5568 5582 5600 5618 5639 5659 5672 5680 5688 5689 5695 5684 5697 5712 5716 5723 5727 5730 5731 5733 5737 5737 5738 5737 5738 5737 5740 5742 5742 5742 5743 5743 5743 5743 5741 5743 5742 5739 5739 5737 5736